Красный Яр

Казахстан     53°19′35″N   69°15′26″E
темп.,
°C
ветер,
м/с
пор.,
м/с
влажн.,
%
обл.,
%
осадки,
мм/ч
давл.,
гПа
погр.,
м
1 марта, пн
пн123:00−3ююв1298100 2.9 100475
02:000юз71395100 1.3 1004601
05:00−1зюз5119599 2.1 1005508
08:00−11ссз359797 0.6 1007151
11:00−11ссз349494 0.8 1010236
14:00−10сз349398 0.1 1012331
17:00−11ссз349599 0.2 1014218
20:00−15сз229787 0.1 101620
2 марта, вт
вт223:00−17зюз229788 0.1 101720
02:00−17зюз229692 0.1 101728
05:00−16зюз229688 0.1 101737
08:00−16зюз229696 0.2 101646
11:00−13юз349089 0.3 1016318
14:00−10зюз358998 0.1 1015457
17:00−11зюз379399 0.1 1014277
20:00−14юз489283 0.0 1015194
3 марта, ср
ср323:00−17юз4109279 0.1 1015239
02:00−19ююз5129234 0.0 1015294
05:00−19юз5139136 0.0 1015327
08:00−15юз71489100 0.0 1013426
11:00−11юз71587100 0.0 1013548
14:00−9юз81487100 0.0 1012648
17:00−7юз71588100 0.1 1011778
20:00−5юз51489100 0.1 1010782
4 марта, чт
чт423:00−4юз61588100 0.1 1009752
02:00−4ююз51491100 0.0 1007699
05:00−3ююз61587100 0.0 1006669
08:00−2ююз61591100 0.0 1004883
11:000юз101687100 0.1 10031159
14:000юз9158599 0.1 10021203
17:00−1юз7148893 0.2 1004843
20:00−2юз6139197 0.1 1005507
5 марта, пт
пт523:00−7зсз499099 0.7 1008326
02:00−14зюз459321 0.0 101075
05:00−14юз5109010 0.0 1012175
08:00−11юз717830 0.0 1012369
11:00−6юз12208040 0.0 1011851
14:00−7юз132087100 0.1 1011830
17:00−5юз122082100 0.1 10121011
20:00−4юз11208496 0.0 1012969